Regional Weather Roundup
Issued by NWS

Home | Current Version | Previous Version | Text Only | Print | Product List | Glossary On
Versions: 1 2 3 4 5 6 7 8 9 10 11 12 13 14 15 16 17 18 19 20 21 22 23 24 25 26 27
000
ASUS45 KTFX 250810
RWRMT
MONTANA REGIONAL WEATHER ROUNDUP
NATIONAL WEATHER SERVICE GREAT FALLS MT
100 AM MST SUN FEB 25 2018

NOTE: "FAIR" INDICATES FEW OR NO CLOUDS BELOW 12000 FEET WITH NO
SIGNIFICANT WEATHER AND/OR OBSTRUCTIONS TO VISIBILITY.

MTZ001>007-043-250900-
WEST OF THE DIVIDE

CITY           SKY/WX    TMP DP  RH WIND       PRES   REMARKS
KALISPELL      CLOUDY    23  18  81 S5        29.83S
MISSOULA       MOCLDY    20  17  88 E3        29.89S
BUTTE          FAIR      17   7  64 VRB3      29.77F
MULLAN PASS    SNOW      17  14  88 SW13G26   29.73F VSB 1/4 WCI   4
ANACONDA         N/A     21   9  58 MISG      29.80S
DEER LODGE       N/A     16  16 100 CALM      29.82S
HAMILTON         N/A     28  10  47 MISG      29.91R
RONAN            N/A     23  19  86 S9        29.90R WCI  13
$$

MTZ008-052>055-250900-
SOUTHWEST MONTANA

CITY           SKY/WX    TMP DP  RH WIND       PRES   REMARKS
BOZEMAN        CLOUDY    22   9  57 W5        29.80S
DILLON         FAIR      10   7  87 SW12      29.83S WCI  -5
ENNIS          CLOUDY    21   9  58 S7G13     29.84S WCI  13
W YELLOWSTONE  CLOUDY    12   9  85 SW10      29.77R WCI  -1
THREE FORKS      N/A     21   8  57 SW5       29.80F
$$

MTZ009-010-012-014-046-048-049-054-250900-
EAST SLOPES AND CENTRAL MONTANA

CITY           SKY/WX    TMP DP  RH WIND       PRES   REMARKS
CUT BANK       FAIR      21  11  65 W25       29.58F WCI   4
GREAT FALLS    FAIR      18   7  62 SW16      29.68S WCI   3
MALMSTROM AFB  FAIR      13   7  75 SW16      29.69F WCI  -3
HELENA         FAIR      26  14  60 W15G26    29.77S WCI  14
AUGUSTA        MOCLDY    22  11  62 W24G37    29.64S WCI   6
BOWMANS CRNR   FAIR      16   7  67 S8        29.66F WCI   5
CHOTEAU          N/A     25  10  54 SW21G30   29.63F WCI  10
FAIRFIELD      FAIR      21   9  61 SW15      29.64F WCI   7
POWER          FAIR      10   2  68 SW9       29.65F WCI  -3
RAYNESFORD     FAIR      25   8  49 SW23G31   29.67F WCI  10
ULM            FAIR      21  11  63 SW18      29.69F WCI   7
WHITE SULPHUR    N/A     19   9  63 W16G24    29.69F WCI   5
$$

MTZ011-013-016-021-045-047-050-051-250900-
NORTH CENTRAL MONTANA

CITY           SKY/WX    TMP DP  RH WIND       PRES   REMARKS
HAVRE          FAIR       4  -1  80 W7        29.68F WCI  -8
LEWISTOWN      FAIR       9   3  77 S6        29.68F WCI  -1
N BAR RANCH    FAIR      18   7  62 W15G23    29.67S WCI   3
CHINOOK          N/A      9   3  78 CALM      29.68F
GEYSER         FAIR      14   3  61 W6        29.66F WCI   5
STANFORD       FAIR      19   8  60 W20       29.66F WCI   4
WINIFRED       FAIR      16   6  62 SW8       29.67F WCI   6
$$

MTZ017>020-022>027-061-062-250900-
NORTHEAST MONTANA

CITY           SKY/WX    TMP DP  RH WIND       PRES   REMARKS
GLASGOW        FAIR      11   7  84 W8        29.67R WCI  -1
GLENDIVE       FAIR      16  13  88 W10       29.67S WCI   4
JORDAN           N/A      5   0  79 NW10      29.69F WCI -10
MALTA          CLEAR     10   5  79 W15       29.67S WCI  -6
SIDNEY         FAIR      22  17  81 NW14      29.64R WCI   9
WOLF POINT     FAIR      18  12  77 SW8       29.68R WCI   8
PLENTYWOOD       N/A     16  10  79 W15       29.58S WCI   1
POPLAR           N/A     18  14  86 W10       29.66S WCI   6
$$

MTZ028>42-056>058-250900-
SOUTHCENTRAL AND SOUTHEAST MONTANA

CITY           SKY/WX    TMP DP  RH WIND       PRES   REMARKS
BAKER          CLOUDY    17  12  80 W16       29.68R WCI   2
BILLINGS       FAIR      23  14  68 W14       29.74R WCI  11
LIVINGSTON     CLOUDY    25  14  63 W18       29.74F WCI  11
MILES CITY     FAIR      12   5  73 W12       29.73S WCI  -2
BIG TIMBER     MOCLDY    23  16  74 W17       29.76S WCI   9
FORSYTH          N/A     14   7  73 CALM      29.73F
HARLOWTON      FAIR      16   8  71 W23       29.70R WCI  -2
LAUREL           N/A     27  16  63 W18G26    29.76R WCI  13
$$

REGIONAL REPORTS...DAKOTAS

CITY           SKY/WX    TMP DP  RH WIND       PRES   REMARKS
WILLISTON      CLOUDY    22  16  78 W12       29.61R WCI  10
MINOT          CLOUDY    23  18  81 W18       29.52R WCI   9
DICKINSON      MOCLDY    18  15  88 W22       29.58S WCI   1
BEACH          LGT SNOW  18  16  93 W18G24    29.67S WCI   2
CROSBY         FAIR      18  14  86 W16       29.56S WCI   3
TIOGA          FAIR      18  18 100 W16       29.56S WCI   3
WATFORD CITY   FAIR      21  18  86 W12       29.61R WCI   9
BISMARCK       MOCLDY    15   9  76 NW7       29.59S WCI   5
GRAND FORKS    CLOUDY    16  14  92 CALM      29.51F
FARGO          CLOUDY    16  14  92 W6        29.53F WCI   7
BUFFALO SD       N/A     13   5  70 W25       29.60R WCI  -7
RAPID CITY     FAIR      10   1  67 CALM      29.71R
$$

REGIONAL REPORTS...WYOMING/IDAHO/WASHINGTON

CITY           SKY/WX    TMP DP  RH WIND       PRES   REMARKS
GILLETTE       FAIR      17   6  62 SW18      29.71R WCI   1
SHERIDAN       FAIR      14   3  61 N9        29.73R WCI   2
BUFFALO WY     MOCLDY    23  -2  33 S3        29.69S
CODY           FAIR      24   7  48 W9G24     29.75R WCI  14
YELLOWSTONE LA   N/A      2  -2  83 W6        29.75R WCI  -9
IDAHO FALLS    CLOUDY    20  17  88 SW10      29.94S WCI   9
SALMON         MOCLDY    19  17  92 NE5       29.96R
BOISE          FAIR      22  18  85 W3        30.15R
SPOKANE        CLOUDY    25  22  88 S13       29.90F WCI  14
$$

REGIONAL REPORTS...ALBERTA

CITY           SKY/WX    TMP DP  RH WIND       PRES   REMARKS
CALGARY        PTCLDY    21   0  39 W10G20    29.45F WCI  10
CARDSTON         N/A     25   7  46 W16G23      N/A  WCI  12
EDMONTON       CLEAR     19   9  63 SW6       29.40F WCI  11
FORT MCMURRAY  FLURRIES  10   7  85 SE9       29.46F WCI  -2
HIGH LEVEL     CLEAR      5   3  92 CALM      29.33F
LETHBRIDGE     PTCLDY    25  10  54 W32G39    29.55F WCI   7
LLOYDMINSTER   FLURRIES  10   7  85 S8        29.48F WCI  -1
MEDICINE HAT   CLEAR     10   5  79 SW10      29.58F WCI  -3
MILK RIVER       N/A     14   7  73 W17         N/A  WCI  -3
PEACE RIVER    LGT SNOW  14  12  92 CALM      29.27F
PINCHER CREEK  MOCLDY    23  10  58 W29G37    29.56S WCI   6
WATERTON GATE    N/A     23   9  54 SW33G56     N/A  WCI   5
$$

REGIONAL REPORTS...SASKATCHEWAN

CITY           SKY/WX    TMP DP  RH WIND       PRES   REMARKS
CORONACH         N/A     12   7  79 W15         N/A  WCI  -4
CYPRESS HILLS    N/A     14   1  57 SW5         N/A
ESTEVAN        MOCLDY    14   9  79 W10G17    29.53S WCI   1
MOOSE JAW        N/A     19  14  79 W12         N/A  WCI   7
PRINCE ALBERT  FLURRIES  14   7  73 NW6       29.57S WCI   5
REGINA         CLOUDY    12  10  92 W14       29.54S WCI  -3
ROCKGLEN         N/A     14   9  79 W12G18      N/A  WCI   0
SASKATOON      FLURRIES  19  14  79 CALM      29.57S
VAL MARIE        N/A      3  -2  78 N7          N/A  WCI  -9
$$




USA.gov is the U.S. government's official web portal to all federal, state and local government web resources and services.